Location: Newark
(50.8964°N, 1.4048°W)
Time: 01:39:13
(UTC+00:00)

N. Korean satellite - Pass Details

Date: 28 January 2020
Orbit: 456 x 505 km, 97.2° (Epoch: 25 February)

Event Time Altitude Azimuth Distance (km) Brightness Sun altitude
Rises 05:58:13 0° 14° (NNE) 2,545 10.3 -17.3°
Reaches altitude 10° 06:00:16 10° 16° (NNE) 1,670 9.4 -16.9°
Maximum altitude 06:03:52 76° 102° (ESE) 508 6.7 -16.4°
Drops below altitude 10° 06:07:29 10° 189° (S) 1,683 9.3 -15.8°
Sets 06:09:34 0° 191° (S) 2,567 10.2 -15.5°
